User: anonymous   Login
Location: York
(31.8935°S, 116.7682°E)
Time: 10:33:04
(UTC+08:00)
Language:

QB50P2 - Orbit

View from above orbital plane
View from above orbital plane
View from above satellite
View from above satellite

Ground track
Ground track

The orbit data is extracted from the following two-line orbital elements,

1 40032U 14033Y   21206.28681053  .00000493  00000-0  58364-4 0  9990
2 40032  97.9162 133.5331 0013061  55.2733 304.9711 14.88986517384928
Epoch (UTC): 25 July 2021 06:53:00
Eccentricity: 0.0013061
inclination: 97.9162°
perigee height: 592 km
apogee height: 610 km
right ascension of ascending node: 133.5331°
argument of perigee: 55.2733°
revolutions per day: 14.88986517
mean anomaly at epoch: 304.9711°
orbit number at epoch: 38492

The dashed part of the orbit path shows where the satellite is in the earth's shadow,  

DLR